[[{"header":{"parameterUnit":"m.s-1","parameterCategory":1,"la1":30.2991,"la2":30.254,"lo1":-89.0895,"lo2":-89.0444,"dy":0.0017,"dx":0.0017,"nx":28,"ny":28,"refTime":"2024-06-25T03:00:00:Z","depth":0,"parameterNumber":2,"parameterNumberName":"U-component_of_WINDS"},"data":[0,0,0,0,0,0,0,0,0,0,0,0,0,0,0,0,0,0,0,0,0,0,0,0,0,0,0,0,0,0,0,0,0,0,0,0,0,0,0,0,0,0,0,0,0,0,0,0,0,0,0,0,0,0,0,0,0,0,4.3569,4.3571,0,4.3815,4.3818,4.3821,4.3805,4.3801,4.3797,4.3794,4.405,4.406,4.407,0,0,0,0,0,0,0,0,0,0,0,0,0,4.3086,4.3095,4.3568,4.3571,4.3574,4.3814,4.3818,4.3821,4.3805,4.3801,4.3796,4.3792,4.4047,4.4059,4.4071,0,0,0,0,0,0,0,0,0,0,0,0,0,4.331,4.3098,4.3568,4.3595,4.36,4.3814,4.3818,4.3822,4.3806,4.3801,4.3795,4.379,4.4043,4.4058,4.4073,4.4276,0,0,4.4119,4.4126,0,0,0,0,0,0,0,0,4.3298,4.3328,4.3588,4.3594,4.36,4.3773,4.3742,4.3974,4.3808,4.3728,4.3794,4.3788,4.3963,4.3984,4.4043,4.4288,4.4299,4.4121,4.413,4.4137,4.4141,0,0,0,0,0,0,0,4.3282,4.3317,4.3666,4.3592,4.3599,4.3596,4.3622,4.3786,4.3873,4.3735,4.3734,4.3763,4.3965,4.4028,4.4048,4.4303,4.412,4.4134,4.4143,4.4149,4.4727,4.4733,0,0,0,0,0,0,4.326,4.3305,4.3658,4.3673,4.3432,4.3609,4.3638,4.3723,4.3871,4.3888,4.3768,4.3762,4.4004,4.4031,4.4057,4.4305,4.4137,4.4151,4.416,4.4721,4.4728,4.4735,0,0,0,0,0,0,4.325,4.3292,4.3648,4.3489,4.3534,4.3623,4.3719,4.3731,4.3794,4.3896,4.3912,4.3816,4.4001,4.4036,4.4221,4.4313,4.4158,4.4172,4.4713,4.4723,4.4731,4.4801,0,0,0,0,0,0,4.3236,4.3288,4.3366,4.3491,4.3543,4.3808,4.3725,4.374,4.382,4.3814,4.3946,4.3962,4.4,4.4199,4.4237,4.4332,4.4184,4.4705,4.4718,4.4728,4.4791,4.4811,4.4829,0,0,0,0,0,4.3219,4.3377,4.337,4.3413,4.3641,4.3813,4.3843,4.3881,4.3827,4.3906,4.3972,4.3958,4.4297,4.4218,4.426,4.4361,4.47,4.4714,4.4728,4.4782,4.4807,4.4829,0,0,0,0,0,0,4.3262,4.3393,4.3387,4.359,4.369,4.381,4.3911,4.3907,4.4025,4.4015,4.406,4.4089,4.4276,4.4337,4.4246,4.4565,4.4491,4.4515,4.4518,4.4543,4.4562,4.4543,4.4196,0,0,0,0,0,4.3294,4.3421,4.353,4.3699,4.3749,4.3821,4.3897,4.3918,4.4024,4.4067,4.4146,4.425,4.438,4.4465,4.459,4.4799,4.4828,4.489,4.4909,4.4924,4.4944,4.5058,4.5087,4.478,4.478,4.478,0,0,4.3364,4.3451,4.3529,4.3709,4.3789,4.3921,4.3857,4.3999,4.4097,4.4089,4.4268,4.433,4.4449,4.4647,4.4739,4.4704,4.5034,4.4942,4.4953,4.4965,4.5075,4.5104,4.513,4.479,4.4788,4.4786,0,0,4.3557,4.3637,4.3785,4.3866,4.3988,4.4034,4.407,4.419,4.4231,4.4411,4.4407,4.4525,4.4748,4.4833,4.4905,4.513,4.5121,4.517,4.5269,4.5381,4.5405,4.5426,4.5506,4.5534,4.5189,4.5189,4.5189,0,4.3629,4.3826,4.3862,4.4005,4.4084,4.4081,4.4232,4.431,4.4466,4.4521,4.448,4.4759,4.484,4.5057,4.5111,4.517,4.5213,4.5155,4.5398,4.542,4.5441,4.5518,4.5548,4.5194,4.5193,4.5193,4.5192,0,4.3907,4.4044,4.415,4.4299,4.439,4.4537,4.4596,4.4684,4.4697,4.4748,4.4932,4.5027,4.5172,4.5225,4.524,4.5445,4.542,4.5388,4.5315,4.5475,4.5547,4.5577,4.5201,4.5199,4.5198,4.5196,0,0,4.4136,4.4303,4.4341,4.4408,4.4542,4.4648,4.4794,4.4934,4.5008,4.5116,4.524,4.5428,4.5399,4.5482,4.5506,4.5603,4.5775,4.556,4.5563,4.5596,4.6006,4.6029,4.6062,4.5769,4.5775,4.578,4.5996,0,4.4343,4.4601,4.4637,4.4865,4.4992,4.499,4.5117,4.5213,4.5265,4.538,4.5438,4.557,4.5522,4.5572,4.5668,4.5733,4.5857,4.5718,4.5886,4.5891,4.5856,4.61,4.6125,4.6325,4.6025,4.6029,4.6033,0,4.462,4.4733,4.4973,4.5088,4.5143,4.5256,4.5386,4.5497,4.5605,4.5636,4.5727,4.5739,4.589,4.581,4.602,4.5924,4.5995,4.6037,4.6046,4.6063,4.5972,4.6124,4.6389,4.6419,4.6078,4.6075,4.6071,0,4.4762,4.4975,4.5146,4.5204,4.5342,4.5422,4.5484,4.5586,4.5668,4.5782,4.5835,4.5966,4.6038,4.614,4.6187,4.6124,4.6394,4.6317,4.6424,4.6423,4.6481,4.6477,4.6761,4.6527,4.6526,4.6526,4.6525,0,4.4989,4.5136,4.5212,4.5317,4.5481,4.5522,4.5684,4.5743,4.5835,4.5952,4.5959,4.6069,4.6124,4.6242,4.628,4.6448,4.6481,4.651,4.6519,4.651,4.6506,4.6557,4.6544,4.6534,4.6532,4.653,4.6529,0,4.5177,4.5233,4.5419,4.5534,4.5566,4.5682,4.5781,4.5884,4.5933,4.6082,4.6119,4.6198,4.6338,4.6394,4.6566,4.6591,4.6784,4.6782,4.6747,4.675,4.6853,4.6843,4.7181,4.7227,4.6961,4.6964,4.6966,0,4.5318,4.5431,4.5557,4.5636,4.5699,4.5825,4.5908,4.5952,4.6038,4.6169,4.6256,4.6395,4.6509,4.6732,4.6805,4.6937,4.6938,4.7047,4.6958,4.6945,4.6939,4.6932,4.6943,4.7063,4.7066,4.7068,4.707,0,4.5564,4.5585,4.5703,4.5831,4.5929,4.6032,4.6133,4.6197,4.6257,4.6353,4.6495,4.6583,4.6757,4.6895,4.703,4.7094,4.7093,4.7097,4.7129,4.7121,4.7096,4.7111,4.6792,4.709,4.7088,4.7086,4.7085,4.7084,4.5733,4.5832,4.5937,4.6068,4.6147,4.6241,4.6342,4.6404,4.6523,4.6667,4.6686,4.6839,4.6944,4.7125,4.7194,4.7314,4.7286,4.7332,4.7344,4.7354,4.7361,4.7077,4.7339,4.7339,4.7338,4.7338,4.7337,0,4.5978,4.6045,4.6165,4.6304,4.6407,4.6395,4.6505,4.6593,4.6726,4.6824,4.6935,4.7098,4.7231,4.7314,4.7449,4.7529,4.7532,4.7563,4.7558,4.7573,4.7379,4.7338,4.7559,4.7559,4.7559,4.7559,4.7558,4.7558,4.6118,4.6286,4.632,4.6528,4.6593,4.6741,4.6805,4.6892,4.6969,4.7151,4.7261,4.7314,4.7406,4.7547,4.7669,4.769,4.774,4.7773,4.7792,4.7609,4.7586,4.7565,4.7526,4.7783,4.7784,4.7976,4.7978,4.7979]},{"header":{"parameterUnit":"m.s-1","parameterCategory":1,"la1":30.2991,"la2":30.254,"lo1":-89.0895,"lo2":-89.0444,"dy":0.0017,"dx":0.0017,"nx":28,"ny":28,"refTime":"2024-06-25T03:00:00:Z","depth":0,"parameterNumber":3,"parameterNumberName":"V-component_of_WINDS"},"data":[0,0,0,0,0,0,0,0,0,0,0,0,0,0,0,0,0,0,0,0,0,0,0,0,0,0,0,0,0,0,0,0,0,0,0,0,0,0,0,0,0,0,0,0,0,0,0,0,0,0,0,0,0,0,0,0,0,0,5.1079,5.108,0,5.1247,5.1249,5.1251,5.1221,5.1218,5.1215,5.1212,5.1381,5.1388,5.1395,0,0,0,0,0,0,0,0,0,0,0,0,0,5.0727,5.0734,5.1078,5.1081,5.1083,5.1246,5.1249,5.1251,5.1221,5.1218,5.1214,5.1211,5.1378,5.1387,5.1396,0,0,0,0,0,0,0,0,0,0,0,0,0,5.0886,5.0736,5.1078,5.1088,5.109,5.1246,5.1249,5.1252,5.1222,5.1218,5.1213,5.1209,5.1376,5.1386,5.1397,5.1552,0,0,5.143,5.1435,0,0,0,0,0,0,0,0,5.0877,5.0899,5.1084,5.1087,5.109,5.1208,5.1187,5.1352,5.1223,5.1172,5.1212,5.1207,5.1327,5.1341,5.1383,5.156,5.1568,5.1431,5.1438,5.1442,5.1445,0,0,0,0,0,0,0,5.0866,5.0891,5.1145,5.1087,5.1091,5.1082,5.11,5.1218,5.1272,5.1176,5.1174,5.1195,5.1328,5.1372,5.1386,5.157,5.1431,5.144,5.1447,5.1451,5.1882,5.1887,0,0,0,0,0,0,5.0853,5.0883,5.114,5.115,5.0971,5.1092,5.1112,5.1175,5.1271,5.1281,5.1198,5.1193,5.1356,5.1374,5.1392,5.158,5.1442,5.1452,5.1459,5.1877,5.1883,5.1888,0,0,0,0,0,0,5.0845,5.0876,5.1133,5.1016,5.1048,5.1103,5.1174,5.1181,5.1225,5.1288,5.1297,5.1234,5.1353,5.1377,5.1513,5.1585,5.1457,5.1467,5.1871,5.1879,5.1886,5.1956,0,0,0,0,0,0,5.0835,5.0873,5.0934,5.1018,5.1054,5.1252,5.1178,5.1187,5.1244,5.1239,5.1324,5.1333,5.1351,5.1497,5.1523,5.1598,5.1476,5.1865,5.1875,5.1883,5.1948,5.1965,5.198,0,0,0,0,0,5.0823,5.0947,5.0938,5.0969,5.1132,5.1257,5.1277,5.1296,5.125,5.1311,5.1351,5.1331,5.1573,5.1511,5.1541,5.1619,5.186,5.1872,5.1883,5.1941,5.1962,5.198,0,0,0,0,0,0,5.087,5.0958,5.0949,5.1104,5.1173,5.1251,5.1329,5.1319,5.1401,5.1392,5.1411,5.1431,5.1568,5.1607,5.1537,5.1774,5.171,5.1727,5.1744,5.1764,5.178,5.1768,5.1485,0,0,0,0,0,5.0899,5.0994,5.1065,5.1195,5.123,5.1274,5.1329,5.1337,5.1409,5.1438,5.1488,5.1557,5.1649,5.1709,5.1796,5.1953,5.197,5.2022,5.2038,5.2051,5.2066,5.215,5.2173,5.1925,5.1925,5.1924,0,0,5.0959,5.1018,5.1077,5.1206,5.1261,5.1357,5.1299,5.1404,5.1475,5.1454,5.1585,5.1624,5.1702,5.1849,5.1916,5.1886,5.2138,5.2065,5.2075,5.2083,5.2164,5.2187,5.2208,5.1932,5.1931,5.193,0,0,5.1117,5.1172,5.1286,5.1342,5.1426,5.1454,5.1481,5.1561,5.1586,5.1719,5.1704,5.1788,5.1946,5.2002,5.2051,5.223,5.2214,5.2257,5.2342,5.2424,5.2443,5.2461,5.2523,5.2546,5.2272,5.2272,5.2272,0,5.118,5.1327,5.1346,5.1453,5.1509,5.1495,5.1609,5.1662,5.1769,5.1808,5.1772,5.1969,5.2021,5.218,5.2223,5.2264,5.2294,5.2248,5.2439,5.2457,5.2473,5.2533,5.2557,5.2277,5.2277,5.2276,5.2276,0,5.14,5.1502,5.1584,5.1689,5.1754,5.1864,5.1898,5.1962,5.1964,5.1995,5.2129,5.2191,5.229,5.2328,5.2332,5.2487,5.2466,5.2435,5.2371,5.2502,5.2558,5.2581,5.2284,5.2282,5.2281,5.228,0,0,5.1594,5.1708,5.1737,5.1784,5.1875,5.1953,5.2061,5.2159,5.2213,5.2287,5.2378,5.2511,5.2482,5.2538,5.2547,5.2619,5.2755,5.2579,5.2581,5.2609,5.2929,5.2951,5.2977,5.2745,5.2749,5.2753,5.2922,0,5.176,5.1953,5.1973,5.2145,5.2238,5.2225,5.2319,5.2384,5.2415,5.2497,5.2531,5.2625,5.2581,5.2614,5.2685,5.2723,5.2819,5.2711,5.2827,5.2831,5.2808,5.3007,5.3032,5.3188,5.2944,5.2948,5.295,0,5.198,5.2062,5.2244,5.232,5.236,5.2445,5.2535,5.2615,5.2687,5.2704,5.2767,5.2766,5.2875,5.2807,5.2958,5.2884,5.2932,5.2958,5.2964,5.2976,5.2899,5.3023,5.3239,5.3262,5.2986,5.2983,5.298,0,5.2102,5.2257,5.2386,5.2426,5.2519,5.2579,5.262,5.2688,5.2745,5.2824,5.2861,5.2951,5.3,5.3069,5.3092,5.304,5.3241,5.3175,5.3257,5.3257,5.33,5.3297,5.3526,5.3332,5.3332,5.3331,5.3331,0,5.2286,5.2397,5.2442,5.2521,5.2644,5.2664,5.2786,5.2824,5.2884,5.2969,5.2963,5.3042,5.3067,5.3151,5.3169,5.329,5.3312,5.3328,5.3332,5.3329,5.3327,5.3361,5.335,5.3337,5.3336,5.3335,5.3334,0,5.2443,5.2478,5.2616,5.2693,5.2715,5.2802,5.2867,5.2942,5.2972,5.3079,5.3105,5.3151,5.3249,5.3278,5.3395,5.3407,5.3549,5.3543,5.3525,5.3525,5.3605,5.3597,5.3864,5.39,5.3683,5.3685,5.3686,0,5.2558,5.2643,5.2729,5.2786,5.283,5.2921,5.298,5.3002,5.3063,5.3151,5.3216,5.3312,5.3391,5.3546,5.3589,5.3678,5.3674,5.3761,5.3687,5.3681,5.3674,5.3669,5.3677,5.3775,5.3777,5.3779,5.3781,0,5.2758,5.277,5.2856,5.2947,5.3017,5.309,5.316,5.3206,5.3238,5.3307,5.3407,5.3468,5.3587,5.3683,5.3773,5.3813,5.3802,5.3804,5.3827,5.3825,5.3811,5.3819,5.3562,5.3797,5.3796,5.3795,5.3794,5.3793,5.2897,5.2972,5.3043,5.3138,5.3193,5.3258,5.3333,5.3372,5.3456,5.3556,5.3563,5.3671,5.374,5.386,5.3905,5.3988,5.3963,5.3997,5.4006,5.4014,5.402,5.3798,5.4005,5.4004,5.4004,5.4003,5.4003,0,5.3095,5.3141,5.3228,5.3326,5.34,5.3385,5.3461,5.3523,5.3619,5.3684,5.3762,5.3876,5.3968,5.4018,5.4109,5.4166,5.4163,5.4189,5.4185,5.4194,5.4038,5.4008,5.419,5.419,5.419,5.419,5.419,5.419,5.3207,5.3333,5.3354,5.3506,5.355,5.3657,5.3702,5.3761,5.3813,5.3941,5.4018,5.405,5.4109,5.4204,5.4288,5.43,5.4333,5.4362,5.4371,5.4224,5.4205,5.4187,5.4159,5.4369,5.437,5.452,5.4522,5.4523]}]]